STARLINK-34363

Last updated on Thu Jul 03 2025 00:02:07 GMT+0000 (Coordinated Universal Time)

1 64497U 25133AB 25183.58335648 -.01227204 00000+0 -60361-2 0 9992 2 64497 53.1549 210.7328 0000893 83.2619 311.3255 15.84036296 2726
UTC large
Height (km)
Speed (km/s)
/
Latitude / Longitude
Inclination (degrees)
Orbital Period (minutes)
Azimuth
Elevation
Range (km)
Doppler Factor

Next 0 passes for location: London (51.5072 / 0.1276)

Sorry there are no passes over London.